Voltar ao catálogo

YAOGAN-30 AA

AtivoMilitarVLEO
NORAD 48860·PAYLOAD·🇨🇳 China

Lançado Jun 18, 2021 de Xichang Satellite Launch Center

Loading…

Próximas Passagens (próximas 24 horas)

TLE

AtualizadoSource: Space-Track

Época: Sep 14, 2026, 14:54 UTC

1 48860U 21055A   26257.62100093  .00001733  00000-0  12826-3 0  9998
2 48860  34.9967 327.0006 0002965 142.5689 217.5227 15.03025670286642

Acompanhe YAOGAN-30 AA em tempo real com AllMySat

Download on the App Store